Terminal Aerodrome Forecast
Issued by NWS

Home | Current Version | Previous Version | Text Only | Print | Product List | Glossary On
Versions: 1 2 3 4 5 6 7 8 9 10 11 12
000
FTUS42 TJSJ 302351
TAFJBQ
TAF
TJBQ 302351Z 3100/3124 09015G25KT P6SM SCT030 SCT050
     FM310230 11010KT P6SM FEW025 SCT040
     FM311330 08015G25KT P6SM SCT030 BKN050
     FM312330 11010KT P6SM FEW025 FEW040
      AMD NOT SKED 3102/3111=

USA.gov is the U.S. government's official web portal to all federal, state and local government web resources and services.